TimeGMT,TemperatureF,Dew PointF,Humidity,Sea Level PressureIn,VisibilityMPH,Wind Direction,Wind SpeedMPH,Gust SpeedMPH,PrecipitationIn,Events,Conditions,WindDirDegrees,DateUTC
12:20 AM,41.0,37.4,87,29.98,4.3,South,13.8,-,N/A,,Mostly Cloudy,180,2013-02-14 00:20:00
12:50 AM,41.0,39.2,93,29.95,5.6,South,15.0,-,N/A,Rain,Light Rain,180,2013-02-14 00:50:00
1:20 AM,41.0,39.2,93,29.95,6.2,South,16.1,-,N/A,,Mostly Cloudy,190,2013-02-14 01:20:00
1:50 AM,41.0,39.2,93,29.92,6.2,South,16.1,-,N/A,,Overcast,180,2013-02-14 01:50:00
2:20 AM,41.0,39.2,93,29.89,6.2,South,13.8,-,N/A,,Mostly Cloudy,180,2013-02-14 02:20:00
2:50 AM,42,40,90,29.88,6,SSE,15.0,,,,Light Haze,160,2013-02-14 02:50:00
2:50 AM,41.0,39.2,93,29.86,3.7,South,15.0,-,N/A,,Mostly Cloudy,170,2013-02-14 02:50:00
3:20 AM,42.8,39.2,87,29.86,3.1,South,15.0,-,N/A,,Mostly Cloudy,170,2013-02-14 03:20:00
3:50 AM,42.8,41.0,93,29.83,-9999.0,South,12.7,-,N/A,Rain,Light Rain,170,2013-02-14 03:50:00
4:20 AM,42.8,42.8,100,29.80,1.7,South,13.8,-,N/A,,Mostly Cloudy,170,2013-02-14 04:20:00
4:50 AM,44.6,42.8,93,29.77,-9999.0,South,16.1,-,N/A,Rain,Light Rain,180,2013-02-14 04:50:00
5:20 AM,44.6,44.6,100,29.77,-9999.0,South,15.0,27.6,N/A,Rain,Light Rain,190,2013-02-14 05:20:00
5:50 AM,46,44,92,29.75,6,South,17.3,,,Rain,Light Rain Showers,180,2013-02-14 05:50:00
5:50 AM,46.4,44.6,93,29.74,3.7,South,16.1,-,N/A,Rain,Light Rain,190,2013-02-14 05:50:00
6:20 AM,46.4,44.6,93,29.74,4.3,SSW,13.8,-,N/A,Rain,Light Rain,200,2013-02-14 06:20:00
6:50 AM,46.4,44.6,93,29.74,6.2,SSW,13.8,-,N/A,Rain,Light Rain,200,2013-02-14 06:50:00
7:20 AM,46.4,44.6,93,29.74,6.2,SW,12.7,-,N/A,,Scattered Clouds,220,2013-02-14 07:20:00
7:50 AM,48.2,44.6,87,29.74,6.2,West,11.5,-,N/A,,Scattered Clouds,260,2013-02-14 07:50:00
8:20 AM,48.2,44.6,87,29.77,6.2,West,9.2,-,N/A,,Partly Cloudy,270,2013-02-14 08:20:00
8:50 AM,48,46,88,29.79,25,West,9.2,,,,Mostly Cloudy,270,2013-02-14 08:50:00
8:50 AM,48.2,44.6,87,29.77,6.2,West,10.4,-,N/A,,Partly Cloudy,280,2013-02-14 08:50:00
9:20 AM,48.2,44.6,87,29.80,6.2,West,11.5,-,N/A,,Scattered Clouds,270,2013-02-14 09:20:00
9:50 AM,50.0,44.6,82,29.80,6.2,West,12.7,-,N/A,,Scattered Clouds,280,2013-02-14 09:50:00
10:20 AM,50.0,44.6,82,29.80,6.2,WNW,12.7,-,N/A,,Scattered Clouds,290,2013-02-14 10:20:00
10:50 AM,50.0,44.6,82,29.83,6.2,WNW,12.7,-,N/A,,Scattered Clouds,290,2013-02-14 10:50:00
11:20 AM,51.8,42.8,71,29.83,6.2,WNW,13.8,-,N/A,,Scattered Clouds,300,2013-02-14 11:20:00
11:50 AM,51,42,61,29.84,25,WNW,15.0,,,,Partly Cloudy,290,2013-02-14 11:50:00
11:50 AM,51.8,41.0,67,29.83,6.2,WNW,16.1,-,N/A,,Scattered Clouds,290,2013-02-14 11:50:00
12:20 PM,51.8,41.0,67,29.83,6.2,WNW,11.5,-,N/A,,Scattered Clouds,300,2013-02-14 12:20:00
12:50 PM,51.8,41.0,67,29.83,6.2,WNW,16.1,-,N/A,,Scattered Clouds,290,2013-02-14 12:50:00
1:20 PM,51.8,41.0,67,29.83,6.2,WNW,12.7,-,N/A,,Scattered Clouds,300,2013-02-14 13:20:00
1:50 PM,51.8,41.0,67,29.83,6.2,NW,11.5,-,N/A,,Scattered Clouds,310,2013-02-14 13:50:00
2:20 PM,51.8,39.2,62,29.86,6.2,WNW,10.4,-,N/A,,Scattered Clouds,300,2013-02-14 14:20:00
2:50 PM,51,38,52,29.86,19,WNW,12.7,,,,Mostly Cloudy,290,2013-02-14 14:50:00
2:50 PM,50.0,37.4,62,29.86,6.2,WNW,13.8,-,N/A,,Scattered Clouds,290,2013-02-14 14:50:00
3:20 PM,51.8,37.4,58,29.86,6.2,WNW,10.4,-,N/A,,Mostly Cloudy,300,2013-02-14 15:20:00
3:50 PM,51.8,37.4,58,29.86,6.2,WNW,10.4,-,N/A,,Scattered Clouds,300,2013-02-14 15:50:00
4:20 PM,50.0,39.2,66,29.86,6.2,WNW,10.4,-,N/A,,Partly Cloudy,290,2013-02-14 16:20:00
4:50 PM,50.0,37.4,62,29.89,6.2,WNW,9.2,-,N/A,,Partly Cloudy,290,2013-02-14 16:50:00
5:20 PM,46.4,37.4,71,29.89,6.2,WNW,5.8,-,N/A,,Partly Cloudy,290,2013-02-14 17:20:00
5:50 PM,46,39,69,29.91,22,West,5.8,,,,,270,2013-02-14 17:50:00
5:50 PM,44.6,37.4,76,29.89,-9999.0,West,8.1,-,N/A,,Clear,280,2013-02-14 17:50:00
6:20 PM,46.4,37.4,71,29.92,-9999.0,West,8.1,-,N/A,,Clear,280,2013-02-14 18:20:00
6:50 PM,46.4,39.2,76,29.92,-9999.0,West,10.4,-,N/A,,Clear,280,2013-02-14 18:50:00
7:20 PM,46.4,37.4,71,29.92,-9999.0,WNW,8.1,-,N/A,,Clear,290,2013-02-14 19:20:00
7:50 PM,44.6,37.4,76,29.95,6.2,West,8.1,-,N/A,,Partly Cloudy,280,2013-02-14 19:50:00
8:20 PM,46.4,39.2,76,29.95,6.2,WNW,5.8,-,N/A,,Scattered Clouds,290,2013-02-14 20:20:00
8:50 PM,46,39,67,29.96,17,West,5.8,,,Rain,Rain,280,2013-02-14 20:50:00
8:50 PM,44.6,37.4,76,29.95,-9999.0,WNW,6.9,-,N/A,,Clear,290,2013-02-14 20:50:00
9:20 PM,42.8,37.4,81,29.95,6.2,West,8.1,-,N/A,,Partly Cloudy,280,2013-02-14 21:20:00
9:50 PM,42.8,37.4,81,29.95,-9999.0,West,8.1,-,N/A,,Clear,280,2013-02-14 21:50:00
10:20 PM,42.8,37.4,81,29.98,-9999.0,WNW,8.1,-,N/A,,Clear,290,2013-02-14 22:20:00
10:50 PM,42.8,37.4,81,29.98,-9999.0,WNW,8.1,-,N/A,,Clear,290,2013-02-14 22:50:00
11:50 PM,41,37,81,29.99,16,West,6.9,,,,,270,2013-02-14 23:50:00
11:50 PM,37.4,35.6,93,29.98,-9999.0,West,6.9,-,N/A,,Clear,280,2013-02-14 23:50:00